This is the latest recevied weather packets stored in our database for station/object XE2VP-WX. If no packets are shown the sender has not sent any weather packets the latest 1 day(s).
| Time | Temp. | Humidity | Pressure | Rain* | Wind** | Luminosity | Snow |
|---|---|---|---|---|---|---|---|
| 1778008502 | 34.44° C | 28% | 938 hPa | 0 mm | 1.34 m/s, 348° | 656 W/m² | - |
| 1778008441 | 34.44° C | 28% | 938 hPa | 0 mm | 0.89 m/s, 220° | 830 W/m² | - |
| 1778008382 | 34.44° C | 28% | 938 hPa | 0 mm | 0.89 m/s, 23° | 970 W/m² | - |
| 1778008321 | 34.44° C | 28% | 938.1 hPa | 0 mm | 1.34 m/s, 5° | 966 W/m² | - |
| 1778008262 | 34.44° C | 28% | 938.1 hPa | 0 mm | 1.34 m/s, 1° | 877 W/m² | - |
| 1778008201 | 34.44° C | 28% | 938.1 hPa | 0 mm | 1.34 m/s, 342° | 749 W/m² | - |
| 1778008142 | 34.44° C | 28% | 938.1 hPa | 0 mm | 1.34 m/s, 326° | 804 W/m² | - |
| 1778008081 | 34.44° C | 28% | 938.1 hPa | 0 mm | 1.34 m/s, 348° | 932 W/m² | - |
| 1778008022 | 33.89° C | 29% | 938.1 hPa | 0 mm | 0.89 m/s, 320° | 943 W/m² | - |
| 1778007962 | 33.89° C | 29% | 938.1 hPa | 0 mm | 0.89 m/s, 131° | 898 W/m² | - |
| 1778007901 | 33.89° C | 29% | 938.2 hPa | 0 mm | 0.89 m/s, 26° | 838 W/m² | - |
| 1778007841 | 33.89° C | 29% | 938.2 hPa | 0 mm | 1.34 m/s, 187° | 867 W/m² | - |
| 1778007781 | 33.89° C | 30% | 938.2 hPa | 0 mm | 0.89 m/s, 200° | 897 W/m² | - |
| 1778007722 | 33.89° C | 30% | 938.2 hPa | 0 mm | 0.89 m/s, 169° | 903 W/m² | - |
| 1778007662 | 33.89° C | 30% | 938.2 hPa | 0 mm | 0.89 m/s, 162° | 940 W/m² | - |
| 1778007601 | 33.89° C | 30% | 938.3 hPa | 0 mm | 0.89 m/s, 176° | 937 W/m² | - |
| 1778007541 | 33.89° C | 30% | 938.3 hPa | 0 mm | 0.89 m/s, 169° | 952 W/m² | - |
| 1778007482 | 33.89° C | 29% | 938.3 hPa | 0 mm | 0.89 m/s, 178° | 956 W/m² | - |
| 1778007422 | 33.89° C | 29% | 938.3 hPa | 0 mm | 0.89 m/s, 183° | 968 W/m² | - |
| 1778007361 | 33.89° C | 30% | 938.3 hPa | 0 mm | 0.89 m/s, 149° | 998 W/m² | - |
| 1778007302 | 33.89° C | 30% | 938.4 hPa | 0 mm | 0.89 m/s, 228° | 1011 W/m² | - |
| 1778007241 | 33.89° C | 30% | 938.4 hPa | 0 mm | 1.34 m/s, 166° | 982 W/m² | - |
| 1778007182 | 33.89° C | 30% | 938.4 hPa | 0 mm | 1.34 m/s, 0° | 1024 W/m² | - |
| 1778007122 | 33.89° C | 30% | 938.4 hPa | 0 mm | 1.34 m/s, 198° | 1024 W/m² | - |
| 1778007062 | 33.89° C | 30% | 938.4 hPa | 0 mm | 1.34 m/s, 184° | 1034 W/m² | - |
* Rain latest hour (hover to see other rain measurements)
** Current wind speed in m/s (hover to see current wind gust speed)